Weather History for Wadena, MN

Change the Weather History Date:

Tuesday, January 1, 2013

  Actual Average Record
Temperature  
Mean Temperature 0 °F -  
Max Temperature 19 °F 16 °F 42 °F (1964)
Min Temperature -20 °F -3 °F -35 °F (1974)
Degree Days  
Heating Degree Days 66    
Moisture  
Dew Point 0 °F    
Average Humidity 86    
Maximum Humidity 93    
Minimum Humidity 70    
Precipitation  
Precipitation 0.00 in - - ()
Sea Level Pressure  
Sea Level Pressure 30.05 in    
Wind  
Wind Speed 3 mph (SW)    
Max Wind Speed 13 mph    
Max Gust Speed 16 mph    
Visibility 9 miles    
Events Snow    
Averages and records for this station are not official NWS values.
T = Trace of Precipitation, MM = Missing Value Source: NWS Daily Summary

Daily Weather History Graph

Daily Weather History Graph

Search for Another Location

Airport:

Trip Planner

Search our weather history database for the weather conditions in past years. The results will help you decide how hot, cold, wet, or windy it might be!

Date:

Astronomy

Jan. 01, 2013 Rise Set
Actual Time 8:04 AM CST 4:44 PM CST
Civil Twilight 7:29 AM CST 5:19 PM CST
Nautical Twilight 6:51 AM CST 5:57 PM CST
Astronomical Twilight 6:15 AM CST 6:34 PM CST
Moon 9:34 PM CST (1/1) 10:01 AM CST (1/1)
Length of Visible Light 9h 49m
Length of Day
8h 40m
Waning Gibbous, 83% of the Moon is Illuminated
Jan 1
Waning Gibbous
Jan 4
Last Quarter
Jan 11
New
Jan 18
First Quarter
Jan 26
Full

Hourly Weather History & Observations

Time (CST) Temp. Windchill Dew Point Humidity Pressure Visibility Wind Dir Wind Speed Gust Speed Precip Events Conditions
12:14 AM -18.4 °F -28.9 °F -22.0 °F 84% 30.19 in 10.0 mi WSW 3.5 mph - N/A   Clear
12:35 AM -14.8 °F -24.8 °F -18.4 °F 84% 30.19 in 10.0 mi WSW 3.5 mph - N/A   Clear
12:52 AM -14.8 °F - -16.6 °F 92% 30.20 in 10.0 mi Calm Calm - N/A   Clear
1:14 AM -14.8 °F - -18.4 °F 84% 30.20 in 10.0 mi Calm Calm - N/A   Clear
1:35 AM -14.8 °F - -18.4 °F 84% 30.19 in 10.0 mi Calm Calm - N/A   Clear
1:53 AM -16.6 °F - -20.2 °F 84% 30.18 in 10.0 mi Calm Calm - N/A   Clear
2:14 AM -16.6 °F - -20.2 °F 84% 30.17 in 10.0 mi Calm Calm - N/A   Clear
2:34 AM -16.6 °F - -20.2 °F 84% 30.17 in 10.0 mi Calm Calm - N/A   Clear
2:53 AM -18.4 °F - -22.0 °F 84% 30.17 in 10.0 mi Calm Calm - N/A   Clear
3:15 AM -18.4 °F - -22.0 °F 84% 30.18 in 10.0 mi Calm Calm - N/A   Clear
3:35 AM -18.4 °F - -22.0 °F 84% 30.18 in 10.0 mi Calm Calm - N/A   Clear
3:53 AM -18.4 °F - -23.8 °F 76% 30.17 in 10.0 mi Calm Calm - N/A   Clear
4:14 AM -18.4 °F - -23.8 °F 76% 30.18 in 10.0 mi Calm Calm - N/A   Clear
4:35 AM -18.4 °F - -23.8 °F 76% 30.17 in 10.0 mi Calm Calm - N/A   Clear
4:53 AM -18.4 °F - -25.6 °F 70% 30.17 in 10.0 mi Calm Calm - N/A   Clear
5:15 AM -20.2 °F - -25.6 °F 76% 30.17 in 10.0 mi Calm Calm - N/A   Clear
5:35 AM -20.2 °F - -25.6 °F 76% 30.16 in 10.0 mi Calm Calm - N/A   Clear
5:53 AM -20.2 °F - -25.6 °F 76% 30.16 in 10.0 mi Calm Calm - N/A   Scattered Clouds
6:15 AM -16.6 °F - -20.2 °F 84% 30.15 in 5.0 mi Calm Calm - N/A Snow Light Snow
6:35 AM -14.8 °F - -18.4 °F 84% 30.15 in 5.0 mi Calm Calm - N/A Snow Light Snow
6:53 AM -11.2 °F - -16.6 °F 77% 30.14 in 5.0 mi Calm Calm - N/A Snow Light Snow
7:15 AM -9.4 °F - -14.8 °F 77% 30.13 in 5.0 mi Calm Calm - N/A Snow Light Snow
7:35 AM -9.4 °F - -13.0 °F 84% 30.12 in 7.0 mi Calm Calm - N/A Snow Light Snow
7:52 AM -7.6 °F - -11.2 °F 84% 30.12 in 10.0 mi Calm Calm - N/A Snow Light Snow
8:14 AM -5.8 °F - -9.4 °F 84% 30.12 in 10.0 mi Calm Calm - N/A Snow Light Snow
8:35 AM -4.0 °F - -7.6 °F 85% 30.12 in 10.0 mi Calm Calm - N/A Snow Light Snow
9:15 AM -0.4 °F - -4.0 °F 85% 30.11 in 10.0 mi Calm Calm - N/A Snow Light Snow
9:35 AM 1.4 °F - -2.2 °F 85% 30.11 in 10.0 mi Calm Calm - N/A   Overcast
9:53 AM 1.4 °F -6.2 °F -0.4 °F 92% 30.10 in 10.0 mi SSW 3.5 mph - N/A Snow Light Snow
10:15 AM 5.0 °F -4.1 °F 1.4 °F 85% 30.10 in 10.0 mi SW 4.6 mph - N/A   Overcast
10:34 AM 5.0 °F -5.6 °F 1.4 °F 85% 30.09 in 10.0 mi SSW 5.8 mph - N/A   Overcast
10:53 AM 6.8 °F -5.9 °F 3.2 °F 85% 30.08 in 10.0 mi SSW 8.1 mph - N/A   Overcast
11:15 AM 6.8 °F -4.8 °F 3.2 °F 85% 30.07 in 10.0 mi SSW 6.9 mph - N/A Snow Light Snow
11:34 AM 8.6 °F -3.7 °F 5.0 °F 85% 30.07 in 10.0 mi SSW 8.1 mph - N/A Snow Light Snow
11:53 AM 8.6 °F -2.6 °F 6.8 °F 92% 30.07 in 7.0 mi SSW 6.9 mph - N/A Snow Light Snow
12:15 PM 10.4 °F 2.2 °F 6.8 °F 85% 30.05 in 7.0 mi SSW 4.6 mph - N/A Snow Light Snow
12:35 PM 12.2 °F 4.3 °F 8.6 °F 85% 30.04 in 5.0 mi SW 4.6 mph - N/A Snow Light Snow
12:53 PM 12.2 °F 1.7 °F 10.4 °F 92% 30.04 in 5.0 mi WSW 6.9 mph - N/A   Overcast
1:15 PM 12.2 °F 2.9 °F 10.4 °F 92% 30.03 in 4.0 mi WSW 5.8 mph - N/A   Overcast
1:35 PM 12.2 °F -0.2 °F 10.4 °F 92% 30.02 in 3.0 mi WSW 9.2 mph - N/A   Overcast
1:53 PM 12.2 °F -0.2 °F 10.4 °F 92% 30.02 in 4.0 mi SW 9.2 mph - N/A   Overcast
2:15 PM 12.2 °F -0.2 °F 10.4 °F 92% 30.01 in 4.0 mi WSW 9.2 mph - N/A   Overcast
2:35 PM 12.2 °F 0.7 °F 10.4 °F 92% 30.01 in 4.0 mi WSW 8.1 mph - N/A   Overcast
2:53 PM 12.2 °F 1.7 °F 10.4 °F 92% 30.01 in 5.0 mi SW 6.9 mph - N/A   Overcast
3:14 PM 14.0 °F 3.9 °F 10.4 °F 86% 30.01 in 7.0 mi WSW 6.9 mph - N/A   Overcast
3:34 PM 14.0 °F 3.9 °F 10.4 °F 86% 30.00 in 7.0 mi SW 6.9 mph - N/A   Overcast
3:53 PM 15.8 °F 8.6 °F 12.2 °F 86% 30.00 in 10.0 mi SW 4.6 mph - N/A   Overcast
4:15 PM 15.8 °F 7.2 °F 12.2 °F 86% 30.00 in 10.0 mi WSW 5.8 mph - N/A   Overcast
4:35 PM 15.8 °F 6.1 °F 12.2 °F 86% 30.00 in 10.0 mi WSW 6.9 mph - N/A   Overcast
4:52 PM 15.8 °F 10.2 °F 12.2 °F 86% 30.00 in 10.0 mi SSW 3.5 mph - N/A   Overcast
5:15 PM 15.8 °F 7.2 °F 12.2 °F 86% 29.99 in 10.0 mi SSW 5.8 mph - N/A   Overcast
5:35 PM 15.8 °F 8.6 °F 12.2 °F 86% 29.99 in 10.0 mi SSW 4.6 mph - N/A   Overcast
5:53 PM 15.8 °F 6.1 °F 12.2 °F 86% 29.98 in 10.0 mi South 6.9 mph - N/A   Overcast
6:15 PM 15.8 °F 6.1 °F 12.2 °F 86% 29.97 in 10.0 mi SSW 6.9 mph - N/A   Overcast
6:34 PM 15.8 °F 4.2 °F 12.2 °F 86% 29.96 in 10.0 mi SSW 9.2 mph - N/A   Overcast
6:53 PM 15.8 °F 6.1 °F 12.2 °F 86% 29.95 in 10.0 mi SSW 6.9 mph - N/A   Overcast
7:15 PM 15.8 °F 7.2 °F 14.0 °F 93% 29.95 in 10.0 mi SSW 5.8 mph - N/A   Overcast
7:35 PM 15.8 °F 7.2 °F 14.0 °F 93% 29.94 in 10.0 mi SSW 5.8 mph - N/A   Overcast
7:53 PM 17.6 °F 8.2 °F 14.0 °F 86% 29.94 in 10.0 mi SSW 6.9 mph - N/A   Overcast
8:14 PM 17.6 °F 10.7 °F 15.8 °F 93% 29.93 in 10.0 mi SSW 4.6 mph - N/A   Overcast
8:35 PM 17.6 °F 12.3 °F 15.8 °F 93% 29.92 in 10.0 mi SSW 3.5 mph - N/A   Overcast
8:53 PM 17.6 °F 12.3 °F 15.8 °F 93% 29.92 in 7.0 mi SSW 3.5 mph - N/A   Overcast
9:15 PM 17.6 °F 9.3 °F 15.8 °F 93% 29.91 in 10.0 mi SSW 5.8 mph - N/A   Overcast
9:34 PM 17.6 °F 9.3 °F 15.8 °F 93% 29.91 in 10.0 mi SSW 5.8 mph - N/A   Overcast
9:53 PM 17.6 °F 8.2 °F 15.8 °F 93% 29.91 in 10.0 mi SW 6.9 mph - N/A   Overcast
10:15 PM 19.4 °F 7.2 °F 15.8 °F 86% 29.91 in 10.0 mi SW 11.5 mph - N/A   Overcast
10:35 PM 17.6 °F 4.3 °F 15.8 °F 93% 29.90 in 10.0 mi SW 12.7 mph - N/A   Overcast
10:53 PM 17.6 °F 5.7 °F 15.8 °F 93% 29.90 in 10.0 mi SW 10.4 mph 16.1 mph N/A   Overcast
11:15 PM 17.6 °F 5.7 °F 15.8 °F 93% 29.89 in 10.0 mi SW 10.4 mph 16.1 mph N/A   Overcast
11:34 PM 17.6 °F 5.0 °F 15.8 °F 93% 29.89 in 10.0 mi SW 11.5 mph - N/A   Overcast
11:53 PM 17.6 °F 6.4 °F 15.8 °F 93% 29.89 in 10.0 mi SW 9.2 mph - N/A   Overcast